www.pogodaiklimat.ru

Погода и климат >> Архив погоды >> Россия >> Ненецкий АО >> Варандей


ПОГОДА в Варандее

  • Прогноз погоды в Варандее
  • Монитор погоды в Варандее

АРХИВ ПОГОДЫ в Варандее

Время (UTC), дата Ветер
(напр.,м/с)
 
Видим.   Явления Облачность Т
(С)
Тd
(С)
f
(%)
Тe
(С)
Тes
(С)
Комфортность P
(гПа)
Po
(гПа)
Тmin
(С)
Tmax
(С)
R
(мм)
R24
(мм)
S
(см)
09 9.07 С 4 10 км слаб. ливневой дождь 10/10 300 м
[Cb cap]
+4.9 +4.9 100 0 0 1007.8 1007.0
12 9.07 С 4 10 км слаб. дождь 10/10 300 м
[Frnb Ns]
+5.0 +5.0 100 +1 +1 1007.9 1007.1
15 9.07 С 4 н/о {дождь} н/о +5.1 +4.9 99 +1 +1 1007.3 1006.5 +5.1 3
18 9.07 СВ 4 10 км слаб. дождь 10/10 300 м
[Frnb Ns]
+5.1 +5.1 100 +1 +1 1006.9 1006.1
21 9.07 СВ 6 4000 м слаб. дождь 10/10 300 м
[Frnb Ns]
+4.8 +4.8 100 -1 -1 1006.6 1005.8
00 10.07 СВ 6
{10}
4000 м слаб. дождь 10/10 300 м
[Frnb Ns]
+4.9 +4.9 100 -1 -1 1006.6 1005.8
03 10.07 СВ 7
{10}
10 км слаб. дождь 10/10 300 м
[Frnb Ns]
+5.0 +5.0 100 -1 -1 1006.1 1005.3 +4.8 3
06 10.07 СВ 7 10 км {дождь} 10/10 300 м
[Cb cap]
+5.6 +5.5 99 0 0 1005.9 1005.1
09 10.07 СВ 7 20 км 10/10 300 м
[Sc]
+6.1 +5.8 98 +1 +1 1006.0 1005.2
12 10.07 СВ 8-10
{11}
20 км 10/8 300 м
[Sc Ac lent Ci fib]
+7.0 +6.4 96 +2 +2 1005.2 1004.4
15 10.07 СВ 7-10
{11}
20 км 10/10 300 м
[Sc]
+6.3 +5.9 97 +1 +1 1004.3 1003.5 +7.2 0.0
18 10.07 СВ 10-12
{13}
20 км слаб. ливневой дождь 10/10 300 м
[Cb cap]
+6.1 +5.7 97 -0 -0 1002.9 1002.1
21 10.07 СВ 10-13
{14}
10 км {ливн. осадки} 10/10 300 м
[Cb cap]
+6.2 +5.9 98 0 0 1001.0 1000.2
00 11.07 СВ 11-15
{15}
10 км {ливн. осадки} 10/6 300 м
[Cb cap As op]
+6.4 +6.2 99 0 0 998.9 998.1
03 11.07 СВ 11-15
{16}
4000 м слаб. ливневой дождь 10/10 300 м
[Cb cap]
+7.4 +7.3 99 +1 +1 997.1 996.3 +6.0 0.4
06 11.07 СВ 10-13
{15}
4000 м слаб. дождь 10/10 200 м
[Frnb Ns]
+9.0 +9.0 100 +4 +4 996.0 995.2
09 11.07 В 8-11
{13}
10 км {дождь} 9/9 300 м
[Sc]
+10.9 +10.9 100 +7 +7 995.7 994.9
12 11.07 В 9-12
{14}
10 км {дождь} 9/9 300 м
[Cb cap]
+16.6 +14.6 88 +15 +15 995.5 994.7
15 11.07 СВ 9-14
{14}
20 км 9/8 300 м
[Cb cap Ci ing]
+13.3 +11.8 91 +10 +10 996.6 995.8 +16.6 9
18 11.07 СВ 7
{14}
10 км 10/10 200 м
[St]
+7.9 +7.9 100 +3 +3 997.5 996.7
21 11.07 СВ 6
{10}
10 км 10/10 200 м
[St]
+7.8 +7.8 100 +3 +3 998.3 997.5
00 12.07 СВ 6 1000 м дымка 10/10 200 м
[St]
+6.5 +6.5 100 +2 +2 999.4 998.6
03 12.07 С 4 500 м туман ?/? +5.4 +5.4 100 +1 +1 1001.1 1000.3 +5.4
06 12.07 СЗ 2 1000 м в посл. час туман 10/10 100 м
[St]
+5.5 +5.5 100 +3 +3 1004.3 1003.4 +5.1
09 12.07 ЮЗ 10-12
{15}
10 км 10/10 300 м
[Cb cap]
+7.7 +7.5 99 +2 +2 1006.7 1005.9
12 12.07 З 7
{15}
10 км в посл. час ливневой дождь 10/10 300 м
[Cb cap]
+6.5 +6.5 100 +1 +1 1009.3 1008.5
15 12.07 З 6 20 км 8/5 300 м
[Cu Sc Ci sp]
+7.6 +7.0 96 +3 +3 1011.3 1010.5 +8.3 0.0
18 12.07 З 4 20 км 3/3 300 м
[Sc Cc]
+6.2 +6.2 100 +2 +2 1012.9 1012.1
21 12.07 З 2 10 км 6/3 300 м
[Sc Cs]
+5.0 +5.0 100 +2 +2 1014.2 1013.4
00 13.07 СВ 1 10 км 4/0 2000 м
[Ac trans Cs]
+5.0 +5.0 100 +3 +4 1015.3 1014.5
03 13.07 В 3 20 км 3/0
[Ci fib]
+11.0 +8.7 86 +9 +12 1015.6 1014.8 +4.7
06 13.07 В 4 20 км 3/0 2000 м
[Ac trans]
+16.8 +9.9 64 +16 +21 1015.0 1014.2
09 13.07 В 7-10
{10}
20 км 4/1 300 м
[Cu med, cong Ci sp]
+18.5 +10.6 60 +18 +21 1014.4 1013.6
12 13.07 В 9-13
{13}
20 км 9/3 300 м
[Cu med, cong Ac trans Ci sp]
+18.4 +10.5 60 +18 +18 1013.0 1012.2
15 13.07 СВ 6
{13}
20 км 10/8 300 м
[Cb cap Ac As]
+16.5 +11.5 72 +15 +15 1011.6 1010.8 +19.2
18 13.07 В 5
{10}
20 км 10/6 300 м
[Cb cap Ac As]
+16.2 +12.9 81 +15 +15 1009.7 1008.9
21 13.07 В 3 10 км слаб. ливневой дождь 10/10 300 м
[Cb cap]
+14.0 +13.9 99 +13 +13 1009.0 1008.2
00 14.07 СВ 6 500 м слаб. дождь ?/? +9.5 +9.5 100 +6 +6 1006.8 1006.0
03 14.07 С 9-11
{11}
2000 м слаб. дождь {туман} 10/10 200 м
[Frnb Ns]
+9.5 +9.5 100 +5 +5 1004.8 1004.0 +9.2 5
06 14.07 СЗ 8
{11}
4000 м дымка {дождь, туман} 10/10 200 м
[St]
+8.0 +8.0 100 +3 +3 1004.9 1004.1 +8.0
09 14.07 З 8-10
{10}
1000 м дымка 10/10 100 м
[St]
+8.1 +8.1 100 +3 +3 1007.6 1006.8
12 14.07 СЗ 5
{10}
10 км 10/10 200 м
[St]
+8.3 +8.3 100 +4 +4 1010.2 1009.4
15 14.07 СЗ 3 1000 м дымка 10/10 100 м
[St]
+7.9 +7.9 100 +5 +5 1011.9 1011.1 +9.5 0.3
18 14.07 СЗ 5 200 м туман ?/? +6.7 +6.7 100 +2 +2 1011.7 1010.9
21 14.07 СВ 5 500 м туман ?/? +6.7 +6.7 100 +2 +2 1011.5 1010.7
00 15.07 СВ 5 10 км в посл. час туман 10/10 200 м
[St]
+5.6 +5.6 100 +1 +1 1011.9 1011.1
03 15.07 С 7 н/о н/о +6.2 +6.2 100 +1 +1 1012.5 1011.6 +5.6
06 15.07 С 5 10 км 9/9 300 м
[Sc]
+6.0 +5.7 98 +1 +2 1013.7 1012.9
09 15.07 СЗ 5 10 км 9/9 300 м
[Sc]
+6.6 +6.3 98 +2 +3 1015.3 1014.5
12 15.07 С 5 500 м туман ?/? +5.7 +5.7 100 +1 +1 1016.4 1015.6
15 15.07 СВ 4 10 км в посл. час туман 9/9 300 м
[Cu Sc]
+7.1 +6.5 96 +3 +3 1017.5 1016.7 +7.1
18 15.07 В 4 10 км {туман} 4/3 300 м
[Cu med, cong Ci sp]
+7.2 +6.9 98 +3 +3 1017.6 1016.8
21 15.07 В 5 20 км 9/0 2000 м
[Ac trans Cs]
+6.6 +6.0 96 +2 +2 1018.0 1017.2
00 16.07 В 7
{10}
10 км 10/6 300 м
[Sc Ac cast]
+6.3 +6.2 99 +1 +1 1017.2 1016.4
03 16.07 В 8-11
{12}
20 км 9/9 300 м
[Sc]
+6.4 +6.0 97 +1 +1 1016.6 1015.8 +6.2
06 16.07 СВ 10-13
{13}
20 км 9/9 300 м
[Sc]
+7.0 +6.2 95 +1 +1 1014.6 1013.8

 

Местоположение метеостанции Варандей (Ненецкий АО, Россия): широта 68.82 долгота 58.02 высота над уровнем моря 7 м.

В архиве по умолчанию представлена погода в Варандее за последнюю неделю. Архивные данные за месяц целиком и за предыдущие месяцы, начиная с января 2011 года, Вы можете получить, выбрав интересующий диапазон дат из раскрывающегося списка и нажав кнопку "Ввод!".


*Определитесь, кто Вы:
робот инопланетянин человек

Внимание! Время в таблицах - всемирное. Для получения местного времени необходимо прибавить поправку, которая равна 3 ч.

Смотрите также архив погоды в соседних городах и на ближайших метеорологических станциях:

Погода на Мысе Константиновском (Ненецкий АО, Россия) (106 км)
Погода на Мысе Белый Нос (Ненецкий АО, Россия) (122 км)
Погода в Хорей-Вере (Ненецкий АО, Россия) (155 км)
Погода в Ходоварихе (Ненецкий АО, Россия) (172 км)
Погода в Амдерме (Ненецкий АО, Россия) (179 км)
Погода в Имени Федорова (Ненецкий АО, Россия) (186 км)
Погода в Харуте (Ненецкий АО, Россия) (228 км)
Погода в Нарьян-Маре (Ненецкий АО, Россия) (245 км)
Погода в Сенгейском Шаре (Ненецкий АО, Россия) (277 км)
Погода в Усть-Каре (Ненецкий АО, Россия) (279 км)

Пояснения к столбцам:

Ветер - указаны скорость ветра в м/с - средняя за 10 мин, порывы в срок и между сроками (в фигурных скобках) и направление, откуда дует ветер: С - северный, СВ - северо-восточный, В - восточный, ЮВ - юго-восточный, Ю - южный, ЮЗ - юго-западный, З - западный, СЗ - северо-западный.
Видимость - горизонтальная дальность видимости в метрах или километрах. При видимости от 1 до 10 км при отсутствии осадков обычно наблюдается дымка, при ухудшении видимости до 1 км и менее - туман. В сухую погоду видимость может ухудшаться дымом, пылью или мглою.
Явления - указаны атмосферные явления, наблюдавшиеся в срок или в последний час перед сроком; фигурными скобками обозначены явления, наблюдавшиеся между сроками (за 1-3 часа до срока); квадратными скобками обозначены град или гололедные отложения с указанием их диаметра в мм.
Облачность - указаны через наклонную черту общая и нижняя облачность в баллах и высота нижней границы облаков в метрах; квадратными скобками обозначены формы облаков: Ci - перистые, Cs - перисто-слоистые, Cc - перисто-кучевые, Ac - высококучевые, As - высокослоистые, Sc - слоисто-кучевые, Ns - слоисто-дождевые, Cu - кучевые, Cb - кучево-дождевые. Подробнее классификацию облаков см. в Атласе облаков (PDF).
T - Температура воздуха - температура, измеренная на высоте 2 м над землей.
Td - Температура точки росы - температура, при понижении до которой содержащийся в воздухе водяной пар достигнет насыщения.
f - Относительная влажность воздуха - влажноcть воздуха, измеренная на высоте 2 м над землей.
Te - Эффективная температура - температура, которую ощущает одетый по сезону человек в тени. Характеристика душности погоды. При расчете учитывается влияние влажности воздуха и скорости ветра на теплоощущения человека.
Tes - Эффективная температура на солнце - температура, которую ощущает человек, с поправкой на солнечный нагрев. Характеристика знойности погоды. Зависит от высоты солнца над горизонтом, облачности и скорости ветра. Ночью, в пасмурную погоду, а также при ветре 12 м/с и более поправка равна нулю.
P - Атмосферное давление - приведенное к уровню моря атмосферное давление.
Po - Атмосферное давление - измеренное на уровне метеостанции атмосферное давление.
Tmin - Минимальная температура - минимум температуры воздуха на высоте 2 м над землей.
Tmax - Максимальная температура - максимум температуры воздуха на высоте 2 м над землей.
R - Количество осадков - Количество выпавших осадков за период времени, мм. При наведении курсора мыши на число - период времени, за который выпало указанное количество осадков.
R24 - Количество осадков - Количество выпавших осадков за 24 часа, мм.
S - Снежный покров - Высота снежного покрова, см. При наведении курсора мыши на число - состояние снежного покрова и степень покрытия местности в баллах.